Regional Weather Roundup
Issued by NWS

Home | Current Version | Previous Version | Graphics & Text | Print | Product List | Glossary Off
Versions: 1 2 3 4 5 6 7 8 9 10 11 12 13 14 15 16 17 18 19 20 21 22 23 24 25 26 27 28 29 30 31 32 33 34 35 36 37 38 39 40 41 42 43 44 45 46 47 48 49

000
ASUS43 KDMX 211807
RWRIA

WEATHER ROUNDUP FOR IOWA
NATIONAL WEATHER SERVICE DES MOINES IA
100 PM CDT THU AUG 21 2014

NOTE: "FAIR" INDICATES FEW OR NO CLOUDS BELOW 12,000 FEET WITH NO
SIGNIFICANT WEATHER AND/OR OBSTRUCTIONS TO VISIBILITY.

* - THESE STATIONS ARE NOT NWS STATIONS...THUS NOT UNDER NWS
QUALITY CONTROL.  THEY ALSO DO NOT REPORT WEATHER SUCH
AS PRECIPITATION OR FOG.

IAZ001>003-012>014-020>022-031>034-043>046-211900-
   NORTHWEST IOWA

CITY           SKY/WX    TMP DP  RH WIND       PRES   REMARKS
CARROLL *      SUNNY     82  73  74 S10G17    29.84F HX  88
CHEROKEE *     SUNNY     84  72  67 SW12      29.81S HX  90
DENISON *      SUNNY     84  73  70 SW8G14    29.82S HX  91
LE MARS *      SUNNY     84  72  65 SW12      29.80S HX  89
ORANGE CITY *  SUNNY     84  70  61 SW10      29.80S HX  88
SHELDON *      SUNNY     82  73  74 SW12      29.78F HX  88
SIOUX CITY     SUNNY     87  72  60 VRB5      29.79F HX  93
6HR MIN TEMP:  74; 6HR MAX TEMP:  87;

SPENCER        SUNNY     84  71  65 SW13      29.79F HX  89
6HR MIN TEMP:  73; 6HR MAX TEMP:  84; 6HR PCP:  0.05;

STORM LAKE *   SUNNY     84  77  79 SW10G17   29.82F HX  94
$$

IAZ055>058-069>071-079>083-090>094-211900-
   SOUTHWEST IOWA

CITY           SKY/WX    TMP DP  RH WIND       PRES   REMARKS
ATLANTIC *     SUNNY     82  72  69 S9        29.83F HX  87
AUDUBON *      SUNNY     86  77  74 S7        29.86F HX  97
CLARINDA *     SUNNY     79  73  83 S12       29.83F HX  82
COUNCIL BLFS * SUNNY     81  73  78 S8G14     29.83R HX  85
CRESTON *      SUNNY     82  73  74 S12       29.88F HX  88
HARLAN  *      SUNNY     82  72  69 SW7       29.87F HX  87
LAMONI         CLOUDY    84  73  69 SW9       29.91S HX  90
6HR MIN TEMP:  72; 6HR MAX TEMP:  84; 6HR PCP:  0.15;

RED OAK *      SUNNY     81  72  74 S5        29.85R HX  84
SHENANDOAH *   SUNNY     81  73  78 N6        29.84R HX  85
$$

IAZ047>049-059>061-072>074-084-211900-
   CENTRAL IOWA

CITY           SKY/WX    TMP DP  RH WIND       PRES   REMARKS
AMES           CLOUDY    82  75  79 S14       29.86S HX  89
6HR MIN TEMP:  73; 6HR MAX TEMP:  82; 6HR PCP:  0.25;

ANKENY *       MOSUNNY   81  75  83 S9G16     29.88R HX  86
CHARITON *     LGT RAIN  82  73  74 CALM      29.92S HX  88
DES MOINES     CLOUDY    83  73  72 S9G17     29.88S HX  89
6HR MIN TEMP:  76; 6HR MAX TEMP:  83; 6HR PCP:  0.11;

GRINNELL*      LGT RAIN  77  72  83 SE5       29.88F
KNOXVILLE *    CLOUDY    77  73  88 S8        29.90F
MARSHALLTOWN   PTSUNNY   80  73  79 S15       29.86S HX  84
6HR MIN TEMP:  74; 6HR MAX TEMP:  80; 6HR PCP:  0.15;

PELLA *        HVY RAIN  77  74  92 SE8       29.90F
PERRY *          N/A     81  73  78 S13       29.86S HX  85
$$

IAZ004>006-015-016-023>025-035-036-211900-
   NORTH CENTRAL IOWA

CITY           SKY/WX    TMP DP  RH WIND       PRES   REMARKS
ALGONA *       SUNNY     84  73  70 S16G23    29.81S HX  91
CLARION *      MOSUNNY   81  72  74 S10       29.83F HX  84
ESTHERVILLE    MOSUNNY   82  70  66 MISG      29.78S HX  86
6HR MIN TEMP:  70; 6HR MAX TEMP:  82;

FORT DODGE *   MOSUNNY   82  73  74 S14       29.85R HX  88
MASON CITY     PTSUNNY   82  74  76 S15       29.82F HX  88
6HR MIN TEMP:  71; 6HR MAX TEMP:  82; 6HR PCP:  0.36;

FOREST CITY *  SUNNY     82  72  69 S18G24    29.80F HX  87
IOWA FALLS *   PTSUNNY   79  72  79 S12       29.87S HX  82
$$

IAZ007>011-017>019-026>030-037>042-050>054-066-211900-
   NORTHEAST IOWA

CITY           SKY/WX    TMP DP  RH WIND       PRES   REMARKS
CEDAR RAPIDS   RAIN      75  74  96 VRB3      29.92S FOG
6HR MIN TEMP:  72; 6HR MAX TEMP:  79; 6HR PCP:  0.12;

CHARLES CITY * SUNNY     75  73  94 S10       29.81F
CLINTON *      CLOUDY    81  72  74 SW8       29.97R HX  84
DECORAH *      MOSUNNY   73  72  94 S8G15     29.83F
DUBUQUE        CLOUDY    75  73  93 S8        29.93F FOG
6HR MIN TEMP:  70; 6HR MAX TEMP:  75; 6HR PCP:  0.10;

MONTICELLO *   CLOUDY    77  73  88 SW9       29.93R
OELWEIN *      MOSUNNY   75  73  94 S16       29.85F
WATERLOO       CLOUDY    77  73  87 S12       29.84F
6HR MIN TEMP:  71; 6HR MAX TEMP:  77; 6HR PCP:  0.07;

$$

IAZ064-065-067-068-078-211900-
   EAST CENTRAL IOWA

CITY           SKY/WX    TMP DP  RH WIND       PRES   REMARKS
DAVENPORT      CLOUDY    80  71  74 SW8       29.94R HX  84
6HR MIN TEMP:  72; 6HR MAX TEMP:  82;

IOWA CITY      LGT RAIN  77  74  90 VRB3      29.94S
6HR MIN TEMP:  72; 6HR MAX TEMP:  81; 6HR PCP:  0.02;

MT. PLEASANT * PTSUNNY   84  71  65 W7        29.94R HX  90
MUSCATINE *    CLOUDY    81  73  78 NW5       29.94R HX  85
QUAD CITIES    CLOUDY    83  73  72 SW5       29.93R HX  89
6HR MIN TEMP:  73; 6HR MAX TEMP:  83;

$$

IAZ062-063-075>077-085>089-095>099-211900-
   SOUTHEAST IOWA

CITY           SKY/WX    TMP DP  RH WIND       PRES   REMARKS
BURLINGTON     PTSUNNY   85  75  72 SW7       29.93R HX  93
6HR MIN TEMP:  73; 6HR MAX TEMP:  86; 6HR PCP: TRACE;

FAIRFIELD *    PTSUNNY   82  73  74 NW6G12    29.94F HX  88
FORT MADISON * SUNNY     88  75  66 SW5       29.94R HX  97
KEOKUK *       SUNNY     86  75  70 SW10G16   29.92R HX  95
OSKALOOSA *      N/A     78  73  85 CALM      29.92F HX  81
CENTERVILLE *  MOSUNNY   86  75  70 W6        29.95R HX  95
OTTUMWA        PTSUNNY   83  72  69 VRB5      29.91F HX  88
6HR MIN TEMP:  73; 6HR MAX TEMP:  85;

WASHINGTON *   MOSUNNY   81  75  83 NW6       29.94F HX  86
$$

ABBREVIATIONS USED IN REMARKS
   TC - TEMPERATURES IN CELSIUS
  WCI - WIND CHILL INDEX
   HX - HEAT INDEX
  VSB - VISIBILITY
$$




USA.gov is the U.S. government's official web portal to all federal, state and local government web resources and services.